VIKING

Satellite information

Favourite Embed

Satellite Type and Status

PAYLOADIN ORBIT

Key statistics

Satellite VIKING at a glance.

Uptime

14379

Days in orbit

Revolutions

≈ 5.5

Per day

Orbit

HEO

HEO

Inclination

98.7

Latest

Satellite identification and parameters

Extended collection of information and parameters for VIKING.

Object identification

Identified? True

Debris? False

Object name: VIKING

International designator: 1986-019B

Object number (NORAD): 16614

Object ID (CCSDS): 16614

Country: SWEDEN (SWED)

Current information (Y/N): Y

RCS size: LARGE

Orbital parameters

Period: 261.542 minutes

Inclination: 98.727 deg

SMA: 13547.338 km

Apoapsis: 13513.281 km

Periapsis: 825.124 km

RAAN: 193.6168 deg

Eccentricy: 0.4682897

Argument of periapsis: 67.9914 deg

Mean anomaly: 16.2877 deg

Mean motion: 5.50581769 rev/day

Mean motion (dot): 0.00000046 rev/day2

B* drag term: -0.00031026 1/REarth

Two-line elements (TLE)

Creation date: July 5, 2025, 5:45 p.m.

Reference frame: TEME

Reference center: EARTH

Epoch: July 5, 2025, 2:44 p.m. UTC

TLE line 0: 0 VIKING

TLE line 1: 1 16614U 86019B 25186.61397118 .00000046 00000-0 -31026-3 0 9996

TLE line 2: 2 16614 98.7270 193.6168 4682897 67.9914 16.2877 5.50581769791179

Live tracking on map

Real-time ground track for satellite VIKING.

In-orbit conjunctions

There are no conjunctions computed for VIKING, at the moment. Check back to stay up to date, as we update our databases every day.

Go to all conjunctions

Associated space launch

SPOT 1 is a French Earth observation satellite. Viking is Sweden's first satellite.

VIKING was lifted into orbit during the mission ‘Ariane 1 | SPOT 1 & Viking’, on board a Ariane 1 space rocket.

The launch took place on Feb. 22, 1986, 1:44 a.m. from Ariane Launch Area 1 (ELV).

For more information about the launch, click the button.

Launch to space Ariane 1 | SPOT 1 & Viking
Ariane 1 | SPOT 1 & Viking

Agency: N/A

Status: Launch Successful

Launch date: Feb. 22, 1986, 1:44 a.m. UTC

Rocket: Ariane 1

Launch pad: Ariane Launch Area 1 (ELV)

Location: Guiana Space Centre, French Guiana

...

Latest news about this satellite

There are no fresh news available about this satellite. Check back as we update our databases every day.


Newsletter sign-up

Weekly statistics, charts and insights to help you stay on top of the space industry.